Estación de San José

Ultimos registro cada 15 minutos 34
Estación Fecha / Hora Temperatura Humedad Lluvia Velocidad Dirección Radiación Presion
34 San José 04-05-2026 08:15 8,8 91 0 0 131 37 1018,9
33 San José 04-05-2026 08:00 8,6 91 0 0 130 25 1018,7
32 San José 04-05-2026 07:45 8,4 89 0 0 130 12 1018,5
31 San José 04-05-2026 07:30 7,9 89 0 0 130 0 1018,5
30 San José 04-05-2026 07:15 7,9 89 0 0 130 0 1018,5
29 San José 04-05-2026 07:00 8,1 88 0 0 130 0 1018,5
28 San José 04-05-2026 06:45 7,8 89 0 0 130 0 1018,6
27 San José 04-05-2026 06:30 7,8 90 0 0 130 0 1018,5
26 San José 04-05-2026 06:15 8,1 89 0 0 131 0 1018,3
25 San José 04-05-2026 06:00 8,6 88 0 0 130 0 1018,3
24 San José 04-05-2026 05:45 8,9 88 0 0 130 0 1018,2
23 San José 04-05-2026 05:30 9,3 87 0 0 130 0 1018,2
22 San José 04-05-2026 05:15 9,4 87 0 0 130 0 1018,5
21 San José 04-05-2026 05:00 9,6 87 0 0 130 0 1018,4
20 San José 04-05-2026 04:45 9,8 86 0 0 130 0 1018,1
19 San José 04-05-2026 04:30 9,7 86 0 0 130 0 1018,2
18 San José 04-05-2026 04:15 9,7 87 0 0 130 0 1018,2
17 San José 04-05-2026 04:00 9,4 89 0 0 130 0 1018,2
16 San José 04-05-2026 03:45 9,6 90 0 0 130 0 1018,2
15 San José 04-05-2026 03:30 9,6 90 0 0 130 0 1018,4
14 San José 04-05-2026 03:15 9,8 88 0 0 130 0 1018,6
13 San José 04-05-2026 03:00 10 88 0 0 130 0 1018,8
12 San José 04-05-2026 02:45 10,2 86 0 0 130 0 1019
11 San José 04-05-2026 02:30 10,2 87 0 0 130 0 1019,1
10 San José 04-05-2026 02:15 10 89 0 0 130 0 1019,3
9 San José 04-05-2026 02:00 10,1 88 0 0 130 0 1019,3
8 San José 04-05-2026 01:45 10,2 88 0 0 130 0 1019,4
7 San José 04-05-2026 01:30 10,3 87 0 0 130 0 1019,4
6 San José 04-05-2026 01:15 10,6 86 0 0 130 0 1019,2
5 San José 04-05-2026 01:00 10,8 84 0 0 130 0 1019,2
4 San José 04-05-2026 00:45 10,9 84 0 0 130 0 1019,6
3 San José 04-05-2026 00:30 10,9 84 0 0 130 0 1019,6
2 San José 04-05-2026 00:15 10,7 85 0 0 130 0 1019,8
1 San José 04-05-2026 00:00 10,7 87 0 0 130 0 1020,1